TimeCST,TemperatureF,Dew PointF,Humidity,Sea Level PressureIn,VisibilityMPH,Wind Direction,Wind SpeedMPH,Gust SpeedMPH,PrecipitationIn,Events,Conditions,WindDirDegrees,DateUTC
12:15 AM,22.1,8.1,55,30.12,10.0,WNW,9.2,-,N/A,,Scattered Clouds,290,2013-11-27 06:15:00
12:35 AM,21.7,7.7,55,30.12,10.0,WNW,9.2,-,N/A,,Mostly Cloudy,290,2013-11-27 06:35:00
12:55 AM,22.1,8.6,56,30.12,10.0,NW,10.4,-,N/A,,Overcast,310,2013-11-27 06:55:00
1:15 AM,21.7,8.2,56,30.12,10.0,WNW,10.4,18.4,N/A,,Overcast,300,2013-11-27 07:15:00
1:35 AM,21.7,9.1,58,30.12,10.0,WNW,11.5,17.3,N/A,,Overcast,300,2013-11-27 07:35:00
1:55 AM,21.7,9.3,59,30.12,10.0,NW,13.8,20.7,N/A,,Overcast,310,2013-11-27 07:55:00
2:15 AM,21.2,9.3,60,30.12,10.0,WNW,12.7,19.6,N/A,,Overcast,300,2013-11-27 08:15:00
2:35 AM,21.9,10.8,62,30.12,10.0,NW,16.1,20.7,N/A,,Overcast,310,2013-11-27 08:35:00
2:55 AM,22.1,12.2,66,30.12,10.0,NW,18.4,24.2,N/A,,Overcast,320,2013-11-27 08:55:00
3:15 AM,22.6,13.5,68,30.12,10.0,NW,13.8,20.7,N/A,,Overcast,320,2013-11-27 09:15:00
3:35 AM,22.6,13.5,68,30.12,10.0,NW,15.0,23.0,N/A,Snow,Light Snow,310,2013-11-27 09:35:00
4:45 AM,19.4,8.6,63,30.14,10.0,WNW,12.7,20.7,N/A,,Mostly Cloudy,300,2013-11-27 10:45:00
5:45 AM,19.4,8.6,63,30.16,10.0,WNW,10.4,-,N/A,,Overcast,290,2013-11-27 11:45:00
6:45 AM,17.6,8.6,68,30.17,10.0,WNW,10.4,17.3,N/A,Snow,Light Snow,290,2013-11-27 12:45:00
7:45 AM,17.6,8.6,68,30.19,20.0,WNW,12.7,18.4,N/A,Snow,Light Snow,290,2013-11-27 13:45:00
8:45 AM,19.4,8.6,63,30.19,20.0,WNW,12.7,17.3,N/A,,Scattered Clouds,290,2013-11-27 14:45:00
9:45 AM,23.0,8.6,54,30.20,20.0,North,-9999.0,-,N/A,,Scattered Clouds,0,2013-11-27 15:45:00
10:45 AM,26.6,10.4,51,30.18,20.0,WNW,11.5,23.0,N/A,,Partly Cloudy,290,2013-11-27 16:45:00
11:45 AM,28.4,10.4,47,30.17,20.0,North,-9999.0,-,N/A,,Partly Cloudy,0,2013-11-27 17:45:00
12:45 PM,30.2,12.2,47,30.17,20.0,WNW,13.8,27.6,N/A,,Scattered Clouds,290,2013-11-27 18:45:00
1:45 PM,30.2,10.4,44,30.17,20.0,WNW,13.8,-,N/A,,Scattered Clouds,300,2013-11-27 19:45:00
2:45 PM,30.2,8.6,40,-9999,20.0,NW,13.8,-,N/A,,Scattered Clouds,320,2013-11-27 20:45:00
3:45 PM,30.2,6.8,37,-9999,20.0,WNW,11.5,-,N/A,,Partly Cloudy,290,2013-11-27 21:45:00
4:45 PM,26.6,6.8,43,-9999,20.0,WNW,9.2,-,N/A,,Scattered Clouds,290,2013-11-27 22:45:00
5:45 PM,26.6,8.6,47,-9999,20.0,WNW,6.9,-,N/A,,Scattered Clouds,290,2013-11-27 23:45:00
6:45 PM,24.8,6.8,46,-9999,20.0,West,8.1,-,N/A,,Scattered Clouds,270,2013-11-28 00:45:00
7:45 PM,24.8,10.4,54,-9999,15.0,West,11.5,-,N/A,,Scattered Clouds,280,2013-11-28 01:45:00
8:15 PM,24.1,10.9,57,30.25,10.0,West,5.8,-,N/A,,Clear,270,2013-11-28 02:15:00
8:35 PM,23.7,10.6,57,30.26,10.0,West,8.1,-,N/A,,Clear,270,2013-11-28 02:35:00
8:45 PM,23.0,10.4,59,-9999,15.0,West,9.2,-,N/A,,Mostly Cloudy,270,2013-11-28 02:45:00
8:55 PM,23.9,11.1,58,30.27,10.0,West,6.9,-,N/A,,Clear,270,2013-11-28 02:55:00
9:15 PM,23.9,11.3,59,30.26,10.0,West,4.6,-,N/A,,Clear,260,2013-11-28 03:15:00
9:35 PM,25.2,11.5,56,30.26,10.0,West,6.9,-,N/A,,Mostly Cloudy,270,2013-11-28 03:35:00
9:45 PM,24.8,12.2,59,-9999,15.0,West,6.9,-,N/A,,Mostly Cloudy,270,2013-11-28 03:45:00
9:55 PM,25.0,11.3,56,30.26,10.0,WSW,4.6,-,N/A,,Overcast,250,2013-11-28 03:55:00
10:15 PM,25.5,11.3,55,30.26,10.0,WSW,4.6,-,N/A,,Overcast,240,2013-11-28 04:15:00
10:35 PM,25.7,11.5,55,30.25,10.0,Calm,Calm,-,N/A,,Overcast,0,2013-11-28 04:35:00
10:55 PM,25.7,11.3,55,30.26,10.0,SW,4.6,-,N/A,,Scattered Clouds,230,2013-11-28 04:55:00
11:15 PM,25.7,11.1,54,30.26,10.0,SW,3.5,-,N/A,,Clear,220,2013-11-28 05:15:00
11:35 PM,25.7,11.3,55,30.27,10.0,Calm,Calm,-,N/A,,Clear,0,2013-11-28 05:35:00
11:55 PM,25.5,11.8,56,30.27,10.0,SW,3.5,-,N/A,,Mostly Cloudy,230,2013-11-28 05:55:00